Imrali, Turkey

1:55 AM +03 on October 20, 2017 (GMT +0300)
Imrali

Weather History for 17060 - February, 2013

Change the Weather History Date:

Tuesday, February 12, 2013

  Actual Average Record
Temperature  
Mean Temperature 44 °F -  
Max Temperature 52 °F 49 °F - ()
Min Temperature 35 °F 38 °F - ()
Degree Days  
Heating Degree Days 22    
Moisture  
Dew Point 35 °F    
Average Humidity 67    
Maximum Humidity 87    
Minimum Humidity 46    
Precipitation  
Precipitation 0.00 in - - ()
Sea Level Pressure  
Sea Level Pressure 30.12 in    
Wind  
Wind Speed 4 mph ()    
Max Wind Speed 8 mph    
Max Gust Speed -    
Visibility 5.8 miles    
Events      
T = Trace of Precipitation, MM = Missing Value Source: Averaged Metar Reports

Daily Weather History Graph

Daily Weather History Graph

Search for Another Location

Airport or City:

Trip Planner

Search our weather history database for the weather conditions in past years. The results will help you decide how hot, cold, wet, or windy it might be!

Date:

Astronomy

Feb. 12, 2013 Rise Set
Actual Time 7:02 AM EET 5:35 PM EET
Civil Twilight 6:34 AM EET 6:03 PM EET
Nautical Twilight 6:02 AM EET 6:36 PM EET
Astronomical Twilight 5:30 AM EET 7:08 PM EET
Moon 7:48 AM EET (2/12) 8:17 PM EET (2/12)
Length of Visible Light 11h 29m
Length of Day
10h 32m
Waxing Crescent, 6% of the Moon is Illuminated
Feb 12
Waxing Crescent
Feb 17
First Quarter
Feb 25
Full
Mar 4
Last Quarter
Mar 11
New

Hourly Weather History & Observations

Time (EET) Temp. Windchill Dew Point Humidity Pressure Visibility Wind Dir Wind Speed Gust Speed Precip Events Conditions
12:50 AM 39.2 °F 33.6 °F 33.8 °F 81% 30.06 in 6.2 mi North 8.1 mph - N/A   Partly Cloudy
1:20 AM 41.0 °F 37.1 °F 33.8 °F 76% 30.06 in 6.2 mi Variable 5.8 mph - N/A   Partly Cloudy
1:50 AM 41.0 °F 36.4 °F 33.8 °F 76% 30.09 in 6.2 mi NW 6.9 mph - N/A   Scattered Clouds
2:00 AM 40 °F - 34 °F 72% 30.11 in 6 mi NW 6.9 mph - -   Partly Cloudy
2:20 AM 41.0 °F 36.4 °F 33.8 °F 76% 30.09 in 6.2 mi NNW 6.9 mph - N/A   Scattered Clouds
2:50 AM 41.0 °F 36.4 °F 33.8 °F 76% 30.09 in 6.2 mi NNW 6.9 mph - N/A   Scattered Clouds
3:20 AM 39.2 °F 35.0 °F 33.8 °F 81% 30.09 in 6.2 mi North 5.8 mph - N/A   Scattered Clouds
3:50 AM 37.4 °F 32.1 °F 32.0 °F 81% 30.09 in - North 6.9 mph - N/A   Clear
4:20 AM 35.6 °F 31.7 °F 32.0 °F 87% 30.09 in - NNW 4.6 mph - N/A   Clear
4:50 AM 37.4 °F - 32.0 °F 81% 30.12 in - NNW 2.3 mph - N/A   Clear
5:20 AM 35.6 °F - 32.0 °F 87% 30.12 in - NNW 2.3 mph - N/A   Clear
5:50 AM 35.6 °F - 32.0 °F 87% 30.12 in 6.2 mi NNW 2.3 mph - N/A   Partly Cloudy
6:20 AM 35.6 °F 31.7 °F 32.0 °F 87% 30.12 in 6.2 mi NNW 4.6 mph - N/A   Partly Cloudy
6:50 AM 39.2 °F 37.0 °F 33.8 °F 81% 30.12 in 6.2 mi NNE 3.5 mph - N/A   Partly Cloudy
7:20 AM 41.0 °F 39.0 °F 33.8 °F 76% 30.12 in 6.2 mi East 3.5 mph - N/A   Partly Cloudy
7:50 AM 41.0 °F 39.0 °F 32.0 °F 70% 30.12 in - East 3.5 mph - N/A   Clear
8:00 AM 41 °F - 33 °F 66% 30.15 in 6 mi East 3.5 mph - -  
8:20 AM 42.8 °F 41.1 °F 32.0 °F 66% 30.15 in - East 3.5 mph - N/A   Clear
8:50 AM 44.6 °F 40.7 °F 33.8 °F 66% 30.15 in - ESE 6.9 mph - N/A   Clear
9:50 AM 46.4 °F 44.3 °F 37.4 °F 71% 30.15 in - SE 4.6 mph - N/A   Clear
10:20 AM 46.4 °F 44.3 °F 33.8 °F 62% 30.15 in - SE 4.6 mph - N/A   Clear
10:50 AM 46.4 °F 43.5 °F 37.4 °F 71% 30.15 in 6.2 mi SSE 5.8 mph - N/A   Partly Cloudy
11:20 AM 48.2 °F - 37.4 °F 66% 30.15 in 6.2 mi South 4.6 mph - N/A   Partly Cloudy
11:50 AM 48.2 °F - 35.6 °F 62% 30.15 in 5.0 mi SSE 4.6 mph - N/A   Partly Cloudy
12:20 PM 48.2 °F - 37.4 °F 66% 30.15 in 5.0 mi SSE 5.8 mph - N/A   Partly Cloudy
12:50 PM 48.2 °F - 35.6 °F 62% 30.15 in 6.2 mi SE 5.8 mph - N/A   Partly Cloudy
1:20 PM 48.2 °F - 35.6 °F 62% 30.12 in 6.2 mi SSE 3.5 mph - N/A   Partly Cloudy
1:50 PM 50.0 °F - 37.4 °F 62% 30.12 in 5.0 mi Variable 3.5 mph - N/A   Partly Cloudy
2:00 PM 50 °F - 36 °F 46% 30.15 in 5 mi South 3.5 mph - -   Haze
2:20 PM 51.8 °F - 37.4 °F 58% 30.12 in 5.0 mi Variable 3.5 mph - N/A   Partly Cloudy
2:50 PM 50.0 °F - 37.4 °F 62% 30.12 in 5.0 mi SSE 4.6 mph - N/A   Partly Cloudy
3:20 PM 51.8 °F - 37.4 °F 58% 30.12 in 6.2 mi SE 3.5 mph - N/A   Partly Cloudy
3:50 PM 51.8 °F - 35.6 °F 54% 30.12 in 6.2 mi Variable 2.3 mph - N/A   Partly Cloudy
4:20 PM 50.0 °F - 35.6 °F 58% 30.12 in 6.2 mi Variable 3.5 mph - N/A   Partly Cloudy
4:50 PM 51.8 °F - 35.6 °F 54% 30.12 in 6.2 mi Variable 2.3 mph - N/A   Partly Cloudy
5:20 PM 50.0 °F - 33.8 °F 54% 30.12 in 6.2 mi East 3.5 mph - N/A   Partly Cloudy
5:50 PM 50.0 °F - 33.8 °F 54% 30.12 in 6.2 mi Variable 2.3 mph - N/A   Partly Cloudy
6:20 PM 50.0 °F - 33.8 °F 54% 30.12 in 6.2 mi East 3.5 mph - N/A   Partly Cloudy
6:50 PM 50.0 °F - 33.8 °F 54% 30.12 in 6.2 mi Variable 2.3 mph - N/A   Partly Cloudy
7:20 PM 48.2 °F - 35.6 °F 62% 30.12 in - Variable 1.2 mph - N/A   Clear
7:50 PM 48.2 °F - 37.4 °F 66% 30.12 in - West 3.5 mph - N/A   Clear
8:00 PM 47 °F - 36 °F 56% 30.14 in 6 mi West 3.5 mph - -   Clear
8:20 PM 50.0 °F - 35.6 °F 58% 30.12 in - SE 4.6 mph - N/A   Clear
8:50 PM 48.2 °F - 35.6 °F 62% 30.12 in - ESE 4.6 mph - N/A   Clear
9:20 PM 48.2 °F - 39.2 °F 71% 30.12 in - SE 4.6 mph - N/A   Clear
9:50 PM 48.2 °F - 37.4 °F 66% 30.12 in - East 4.6 mph - N/A   Clear
10:20 PM 48.2 °F - 37.4 °F 66% 30.12 in - Variable 2.3 mph - N/A   Clear
10:50 PM 48.2 °F - 37.4 °F 66% 30.12 in - ENE 3.5 mph - N/A   Clear
11:20 PM 48.2 °F - 39.2 °F 71% 30.12 in 3.7 mi East 3.5 mph - N/A   Unknown
11:50 PM 48.2 °F - 37.4 °F 66% 30.12 in 3.7 mi East 3.5 mph - N/A   Unknown